{"data":{"norad_id":46028,"intl_designator":"2020-055B","name":"STARLINK-1523","alt_names":[],"object_type":"PAYLOAD","status":"ACTIVE","operator":null,"country":"US","launch_date":"2020-08-07","launch_site_code":"AFETR","launch_vehicle":null,"mission":null,"orbit_class":"UNKNOWN","rcs_meters":null,"size_class":null,"mass_kg":null,"dimensions":null,"purposes":["comms"],"wikipedia_slug":null,"has_3d_model":false,"image_url":null,"decayed_at":null,"tle_current":{"epoch":"2026-05-25T03:16:33.091104Z","epoch_age_seconds":56470,"freshness":"FRESH","line1":"1 46028U 20055B   26145.13649411 -.00000348  00000+0  37325-6 0  9990","line2":"2 46028  53.1587 131.6168 0001410  90.0256 270.0906 15.30186308320605","mean_motion":15.30186308,"eccentricity":0.000141,"inclination_deg":53.1587,"raan_deg":131.6168,"arg_perigee_deg":90.0256,"mean_anomaly_deg":270.0906,"bstar":3.7325e-7,"rev_number":32060,"period_min":94.106187754491,"perigee_km":474.28962316199,"apogee_km":476.22227997433,"semimajor_km":6853.3929515682,"source":"CELESTRAK","updated_at":"2026-05-25T13:38:16.458477Z"}}}